#datint,netname,site,siteID,timestamp,IntT,BattV,AirT2,AirT,AirT_Avg,AirT_Max,AirT_Min,RH_Avg,RH_Max,RH_Min,EA_Avg,Td_Avg,Td_Max,Td_Min,WindS_Smp,WindS_Avg,WindD_Avg,WindD_SD,WindS_Max,ETo,ETr,SoilT4,SoilT8,SoilVWC8,SolarW_Avg,wetstate_Avg,wetT_Avg,Precip_accum,Precip_WPG,Precip_TB
15min,AgWx,beryljct,423,11MAY2018:01:00:00,68.1,13.05,67.9,67.3,68.0,68.6,67.3,20,21,19,0.477,25.7,26.3,24.7,9.36,11.1,221,7.8,15.8,0.00109,0.00139,65.3,64.4,15,0,0,66.4,13.77,0.00,0.00
15min,AgWx,beryljct,423,11MAY2018:01:15:00,67.7,13.04,66.7,66.4,66.8,67.4,66.0,21,22,20,0.480,25.8,26.3,25.1,8.02,9.4,218,7.3,13.8,0.00093,0.00121,65.1,64.3,15,0,0,64.9,13.77,0.00,0.00
15min,AgWx,beryljct,423,11MAY2018:01:30:00,66.9,13.03,65.2,64.3,65.4,66.4,64.2,22,24,21,0.482,25.9,26.4,25.0,7.234,7.7,204,7.6,10.8,0.00076,0.00102,64.9,64.2,15,0,0,63.2,13.78,0.00,0.00
15min,AgWx,beryljct,423,11MAY2018:01:45:00,65.7,13.02,63.8,63.8,63.7,64.2,63.4,24,25,22,0.473,25.9,26.9,24.9,6.642,7.7,203,6.6,10.8,0.00071,0.00096,64.8,64.2,15,0,0,61.5,13.78,0.00,0.00
15min,AgWx,beryljct,423,11MAY2018:02:00:00,64.6,13.02,62.6,62.2,62.7,63.7,62.1,25,26,23,0.472,26.0,26.7,25.3,7.804,6.8,203,11,8.4,0.00061,0.00083,64.6,64.1,15,0,0,60.4,13.78,0.00,0.00
15min,AgWx,beryljct,423,11MAY2018:02:15:00,63.8,13.01,63.7,63.5,63.4,64.0,62.3,23,25,22,0.461,25.2,26.1,24.3,9.05,8.4,205,7.3,12.1,0.00076,0.00101,64.4,64.1,15,0,0,61.0,13.78,0.00,0.00
15min,AgWx,beryljct,423,11MAY2018:02:30:00,63.6,13,63.2,62.0,63.2,64.1,62.0,24,25,22,0.474,25.4,26.3,24.2,8.26,8.2,205,7.5,11.0,0.00074,0.00098,64.3,64.0,15,0,0,61.0,13.78,0.00,0.00
15min,AgWx,beryljct,423,11MAY2018:02:45:00,62.9,13,61.6,61.0,61.6,62.2,60.9,26,27,25,0.480,26.2,26.7,25.6,6.686,6.9,212,4.4,8.1,0.00060,0.00081,64.1,64.0,15,0,0,59.3,13.78,0.00,0.00
15min,AgWx,beryljct,423,11MAY2018:03:00:00,62.1,12.99,60.9,60.7,60.8,61.2,60.5,26,27,26,0.478,26.1,26.8,25.6,7.673,7.4,214,4.4,8.6,0.00061,0.00082,63.9,63.9,15,0,0,58.5,13.78,0.00,0.00
15min,AgWx,beryljct,423,11MAY2018:03:15:00,61.6,12.98,61.1,61.2,60.9,61.2,60.6,26,26,25,0.464,25.5,26.0,24.9,8.07,8.2,214,5.9,10.1,0.00068,0.00089,63.7,63.8,15,0,0,58.7,13.78,0.00,0.00
15min,AgWx,beryljct,423,11MAY2018:03:30:00,61.6,12.98,63.1,64.0,62.6,64.0,61.2,24,25,22,0.452,24.9,25.4,24.0,8.42,9.5,217,6.8,14.5,0.00082,0.00106,63.5,63.8,15,0,0,60.5,13.78,0.00,0.00
15min,AgWx,beryljct,423,11MAY2018:03:45:00,62.1,12.97,63.7,63.1,63.7,63.9,63.1,23,24,22,0.471,24.9,25.6,24.2,7.607,9.5,216,7.6,13.4,0.00086,0.00111,63.3,63.7,15,0,0,61.6,13.78,0.00,0.00
15min,AgWx,beryljct,423,11MAY2018:04:00:00,62.1,12.96,62.0,61.2,62.1,63.2,60.9,24,25,23,0.456,25.1,25.9,24.2,7.651,8.0,196,11,11.1,0.00070,0.00093,63.2,63.6,15,0,0,59.8,13.78,0.00,0.00
15min,AgWx,beryljct,423,11MAY2018:04:15:00,61.7,12.96,62.2,62.0,62.0,62.4,61.2,24,25,23,0.441,24.3,24.8,23.7,9.6,9.2,198,6.8,11.6,0.00079,0.00102,63.0,63.5,15,0,0,59.7,13.78,0.00,0.00
15min,AgWx,beryljct,423,11MAY2018:04:30:00,61.5,12.95,61.7,60.6,61.7,62.0,60.6,24,26,23,0.456,24.4,25.2,23.7,8.55,9.5,200,6.6,12.6,0.00080,0.00103,62.8,63.5,15,0,0,59.5,13.78,0.00,0.00
15min,AgWx,beryljct,423,11MAY2018:04:45:00,60.9,12.95,59.4,58.5,59.5,60.7,58.5,27,28,25,0.467,25.3,26.0,24.9,6.379,7.2,207,5.7,8.7,0.00058,0.00078,62.7,63.4,15,0,0,57.2,13.78,0.00,0.00
15min,AgWx,beryljct,423,11MAY2018:05:00:00,59.8,12.95,57.6,56.9,57.7,58.6,56.7,30,32,28,0.496,26.4,27.4,25.4,5.459,6.0,209,3.5,7.8,0.00043,0.00060,62.5,63.3,15,0,0,55.2,13.78,0.00,0.00
15min,AgWx,beryljct,423,11MAY2018:05:15:00,58.6,12.93,57.6,58.3,57.3,58.4,56.7,31,32,29,0.486,26.8,27.4,26.0,7.3,5.8,215,7.4,7.7,0.00041,0.00057,62.3,63.2,15,0,0,54.7,13.78,0.00,0.00
15min,AgWx,beryljct,423,11MAY2018:05:30:00,58.4,12.93,60.0,59.9,59.6,60.4,58.3,27,29,26,0.483,26.0,26.7,25.4,7.629,7.6,217,7.1,10.0,0.00060,0.00080,62.2,63.2,15,0,0,57.4,13.78,0.00,0.00
15min,AgWx,beryljct,423,11MAY2018:05:45:00,58.7,12.93,60.2,60.2,60.0,60.3,59.6,27,29,26,0.482,26.2,27.1,25.7,8.77,7.8,215,5.8,10.2,0.00138,0.00241,62.0,63.1,15,0,0,57.8,13.78,0.00,0.00
15min,AgWx,beryljct,423,11MAY2018:06:00:00,58.9,12.93,59.8,58.7,59.7,60.3,58.7,28,29,27,0.488,26.4,27.0,25.8,8.09,8.6,211,6.9,11.0,0.00147,0.00257,61.8,63.0,15,0,0,57.7,13.78,0.00,0.00
15min,AgWx,beryljct,423,11MAY2018:06:15:00,58.8,12.92,59.1,58.9,58.9,59.3,58.5,30,31,29,0.512,27.3,28.1,26.3,6.445,7.8,208,5.7,11.4,0.00132,0.00231,61.6,62.9,15,0,0,56.7,13.78,0.00,0.00
15min,AgWx,beryljct,423,11MAY2018:06:30:00,58.6,12.92,58.8,58.6,58.6,58.9,58.3,31,32,30,0.539,28.4,29.0,27.5,6.642,6.7,209,5.7,9.3,0.00114,0.00199,61.5,62.8,15,2,0,56.2,13.78,0.00,0.00
15min,AgWx,beryljct,423,11MAY2018:06:45:00,58.3,12.93,59.0,59.2,58.7,59.2,58.3,32,34,31,0.556,29.3,30.1,28.4,8.07,6.6,205,5.6,8.1,0.00114,0.00196,61.3,62.7,15,10,0,56.7,13.78,0.00,0.00
15min,AgWx,beryljct,423,11MAY2018:07:00:00,58.7,12.94,60.4,60.5,60.1,60.5,59.2,32,34,31,0.576,30.2,31.4,29.4,10.24,8.0,208,6.3,11.0,0.00155,0.00254,61.1,62.7,15,45,0,61.6,13.78,0.00,0.00
15min,AgWx,beryljct,423,11MAY2018:07:15:00,59.4,12.96,61.3,62.2,61.0,62.2,60.5,32,34,30,0.590,31.2,32.3,30.0,7.87,7.4,204,7.8,10.4,0.00167,0.00264,61.0,62.6,15,86,0,66.3,13.78,0.00,0.00
15min,AgWx,beryljct,423,11MAY2018:07:30:00,60.8,12.95,62.9,63.2,62.6,63.2,61.9,32,33,30,0.623,32.0,33.2,30.8,11.11,8.3,203,9.4,11.3,0.00201,0.00312,60.9,62.5,15,134,0,70.9,13.78,0.00,0.00
15min,AgWx,beryljct,423,11MAY2018:07:45:00,62.5,13,64.4,64.7,64.1,64.9,63.2,30,34,28,0.642,32.5,34.0,31.2,11.25,11.6,204,8.0,19.4,0.00269,0.00417,60.7,62.4,15,191,0,73.7,13.78,0.00,0.00
15min,AgWx,beryljct,423,11MAY2018:08:00:00,64.3,13.03,65.7,65.7,65.5,65.9,64.7,29,31,27,0.624,32.1,33.1,31.4,15.21,16.7,202,8.2,22.7,0.00348,0.00547,60.7,62.3,15,231,0,74.6,13.78,0.00,0.00
15min,AgWx,beryljct,423,11MAY2018:08:15:00,65.6,13.06,66.2,66.2,66.1,66.4,65.7,28,29,27,0.637,32.2,33.2,31.3,15.17,17.6,200,8.0,22.6,0.00382,0.00593,60.5,62.2,15,281,0,75.8,13.78,0.00,0.00
15min,AgWx,beryljct,423,11MAY2018:08:30:00,66.8,13.11,66.4,66.4,66.4,66.6,66.2,29,30,27,0.616,33.0,34.0,31.8,19.05,18.1,200,8.4,23.9,0.00411,0.00626,60.5,62.1,15,348,0,77.4,13.78,0.00,0.00
15min,AgWx,beryljct,423,11MAY2018:08:45:00,67.4,13.21,66.3,66.3,66.3,66.4,66.0,29,31,28,0.630,33.4,35.0,32.4,18.94,17.5,199,8.1,22.7,0.00410,0.00620,60.5,62.1,15,353,0,76.7,13.78,0.00,0.00
15min,AgWx,beryljct,423,11MAY2018:09:00:00,67.9,13.4,66.7,66.7,66.7,67.0,66.3,29,30,27,0.626,33.1,34.6,32.3,19.44,18.6,199,7.8,23.9,0.00448,0.00671,60.4,62.0,15,414,0,77.7,13.78,0.00,0.00
15min,AgWx,beryljct,423,11MAY2018:09:15:00,68.4,13.59,66.6,66.4,66.6,66.8,66.3,29,31,27,0.647,33.0,35.4,31.5,15.1,18.1,201,8.9,24.0,0.00455,0.00674,60.5,61.9,15,430,0,77.5,13.78,0.00,0.00
15min,AgWx,beryljct,423,11MAY2018:09:30:00,68.6,14.03,66.7,67.3,66.7,67.3,66.3,28,30,27,0.650,32.8,33.9,31.6,15.15,18.4,200,9.3,24.4,0.00475,0.00697,60.5,61.8,15,471,0,77.6,13.78,0.00,0.00
15min,AgWx,beryljct,423,11MAY2018:09:45:00,69.1,14.15,67.1,67.1,67.1,67.6,66.7,27,28,26,0.614,32.1,33.5,30.8,19.64,20.1,197,8.2,26.2,0.00516,0.00758,60.5,61.8,15,522,0,78.9,13.78,0.00,0.00
15min,AgWx,beryljct,423,11MAY2018:10:00:00,69.7,14.16,67.4,67.2,67.4,67.8,67.0,26,29,25,0.586,31.7,33.7,30.2,18.87,20.8,194,9.7,26.7,0.00565,0.00817,60.6,61.7,15,622,0,80.9,13.77,0.00,0.00
15min,AgWx,beryljct,423,11MAY2018:10:15:00,69.8,14.16,67.1,67.2,67.1,67.4,66.7,26,27,24,0.574,30.8,32.2,29.7,24.6,22.3,192,8.9,28.3,0.00557,0.00819,60.7,61.6,15,575,0,77.9,13.78,0.00,0.00
15min,AgWx,beryljct,423,11MAY2018:10:30:00,70.1,14.13,67.5,68.0,67.5,68.1,67.1,25,27,24,0.571,30.5,32.2,29.5,21.51,22.0,197,9.7,26.9,0.00607,0.00875,60.8,61.6,15,689,0,80.9,13.77,0.00,0.00
15min,AgWx,beryljct,423,11MAY2018:10:45:00,70.5,14.14,68.3,68.7,68.3,68.7,67.9,25,27,23,0.618,30.6,33.1,28.8,15.28,19.0,192,9.1,25.5,0.00597,0.00849,60.9,61.5,15,675,0,81.5,13.77,0.00,0.00
15min,AgWx,beryljct,423,11MAY2018:11:00:00,71.2,14.11,69.1,69.6,69.2,70.3,68.7,24,26,22,0.546,30.8,32.6,29.3,21.18,20.0,199,10,27.5,0.00682,0.00950,61.0,61.5,15,846,0,85.8,13.77,0.00,0.00
15min,AgWx,beryljct,423,11MAY2018:11:15:00,72.0,14.12,69.8,70.1,69.9,70.8,69.1,23,25,21,0.593,30.4,32.4,29.1,14.1,20.4,192,10,25.6,0.00720,0.01001,61.1,61.5,15,899,0,86.2,13.77,0.00,0.00
15min,AgWx,beryljct,423,11MAY2018:11:30:00,72.9,14.05,70.7,70.8,70.7,71.7,70.1,23,25,20,0.578,30.6,33.2,28.4,24.49,20.3,190,11,25.7,0.00741,0.01025,61.3,61.5,15,921,0,86.9,13.77,0.00,0.00
15min,AgWx,beryljct,423,11MAY2018:11:45:00,73.1,14.07,70.0,70.3,70.2,71.0,69.7,23,26,22,0.594,31.0,34.0,29.2,20.23,20.7,197,11,27.7,0.00678,0.00958,61.5,61.5,15,775,0,83.5,13.77,0.00,0.00
15min,AgWx,beryljct,423,11MAY2018:12:00:00,72.9,13.67,69.7,69.9,69.9,70.5,69.3,24,27,22,0.599,31.1,34.2,29.6,19.42,20.7,197,13,26.6,0.00655,0.00931,61.7,61.5,15,730,0,81.9,13.77,0.00,0.00
15min,AgWx,beryljct,423,11MAY2018:12:15:00,73.1,13.67,70.8,71.1,70.8,71.5,69.8,23,25,21,0.567,31.5,34.3,28.6,20.58,19.2,199,9.6,27.2,0.00734,0.01008,61.9,61.5,15,916,0,86.7,13.77,0.00,0.00
15min,AgWx,beryljct,423,11MAY2018:12:30:00,73.6,13.63,71.4,72.1,71.5,72.1,71.0,23,25,21,0.622,31.6,33.6,28.9,16.64,19.7,198,10,26.6,0.00768,0.01053,62.2,61.5,15,968,0,87.8,13.77,0.00,0.00
15min,AgWx,beryljct,423,11MAY2018:12:45:00,74.2,13.63,72.1,72.8,72.2,72.9,71.8,23,27,21,0.593,32.6,36.6,30.5,18.81,17.4,202,15,25.3,0.00771,0.01039,62.5,61.5,15,983,0,89.1,13.77,0.00,0.00
15min,AgWx,beryljct,423,11MAY2018:13:00:00,74.7,13.63,71.9,71.4,72.2,72.9,71.4,22,26,21,0.606,31.6,34.9,29.9,14.16,18.9,206,14,25.4,0.00789,0.01074,62.8,61.6,15,1000,0,88.4,13.77,0.00,0.00
15min,AgWx,beryljct,423,11MAY2018:13:15:00,74.8,13.72,72.1,72.2,72.1,72.7,71.3,22,26,20,0.590,31.3,36.2,28.7,15.28,17.3,208,15,24.7,0.00776,0.01046,63.1,61.6,15,991,0,88.5,13.77,0.00,0.00
15min,AgWx,beryljct,423,11MAY2018:13:30:00,74.8,13.63,71.8,72.2,72.0,72.4,71.6,21,24,19,0.507,29.7,33.4,27.4,18.33,20.7,222,11,28.3,0.00805,0.01107,63.5,61.7,15,1011,0,85.8,13.77,0.00,0.00
15min,AgWx,beryljct,423,11MAY2018:13:45:00,74.9,13.64,72.3,73.2,72.4,73.2,71.8,20,23,18,0.552,29.5,32.9,26.3,16.35,18.6,210,12,27.1,0.00803,0.01092,63.9,61.8,15,1013,0,87.6,13.77,0.00,0.00
15min,AgWx,beryljct,423,11MAY2018:14:00:00,75.4,13.68,72.9,72.9,73.0,73.9,72.1,19,22,16,0.490,28.5,31.6,24.8,19.73,18.3,202,14,26.2,0.00815,0.01108,64.3,61.9,15,1015,0,88.4,13.77,0.00,0.00
15min,AgWx,beryljct,423,11MAY2018:14:15:00,75.7,13.61,72.9,73.1,73.1,73.7,72.5,19,22,17,0.524,28.4,32.1,25.6,21.4,19.3,221,12,26.7,0.00821,0.01124,64.7,62.0,15,1016,0,86.8,13.77,0.00,0.00
15min,AgWx,beryljct,423,11MAY2018:14:30:00,76.0,13.58,72.9,72.4,73.1,73.9,72.4,19,22,16,0.527,28.1,32.0,24.8,24.36,18.7,209,9.9,25.3,0.00814,0.01113,65.1,62.1,15,1005,0,87.4,13.77,0.00,0.00
15min,AgWx,beryljct,423,11MAY2018:14:45:00,76.1,13.62,73.1,73.6,73.2,73.8,72.2,18,21,16,0.462,26.7,30.6,24.5,21.24,20.1,199,13,30.0,0.00815,0.01130,65.5,62.2,15,982,0,86.1,13.77,0.00,0.00
15min,AgWx,beryljct,423,11MAY2018:15:00:00,76.2,13.55,73.2,73.2,73.4,74.1,72.9,17,19,15,0.474,25.9,28.5,23.5,18.57,21.2,198,11,28.6,0.00818,0.01145,65.9,62.3,15,961,0,85.4,13.77,0.00,0.00
15min,AgWx,beryljct,423,11MAY2018:15:15:00,76.4,13.56,73.5,73.7,73.6,74.1,73.1,18,20,16,0.499,27.0,29.5,24.7,17.32,18.4,204,12,27.9,0.00789,0.01089,66.3,62.5,15,941,0,86.0,13.77,0.00,0.00
15min,AgWx,beryljct,423,11MAY2018:15:30:00,76.6,13.64,73.3,74.0,73.4,74.6,72.8,17,20,15,0.464,26.4,29.7,23.5,19.05,18.1,201,11,24.8,0.00772,0.01068,66.6,62.6,15,914,0,85.5,13.77,0.00,0.00
15min,AgWx,beryljct,423,11MAY2018:15:45:00,76.9,13.58,73.7,73.5,73.8,74.7,72.6,18,23,16,0.634,27.7,32.9,24.5,10.26,16.4,183,13,22.3,0.00745,0.01024,66.7,62.8,15,883,0,84.6,13.76,0.00,0.00
15min,AgWx,beryljct,423,11MAY2018:16:00:00,77.3,13.56,73.7,73.8,73.8,74.3,73.2,19,23,17,0.516,29.2,33.5,25.8,23.13,17.0,187,16,24.3,0.00709,0.00986,66.8,62.9,15,818,0,84.0,13.76,0.00,0.00
15min,AgWx,beryljct,423,11MAY2018:16:15:00,77.5,13.56,73.9,73.9,74.0,74.5,73.2,19,22,18,0.530,29.7,32.1,27.5,17.43,18.3,194,13,30.5,0.00688,0.00978,66.9,63.1,15,753,0,83.1,13.76,0.00,0.00
15min,AgWx,beryljct,423,11MAY2018:16:30:00,77.1,13.57,73.3,73.6,73.4,74.2,72.6,19,21,18,0.577,28.9,30.6,26.9,17.84,19.4,189,12,29.1,0.00613,0.00907,66.9,63.2,15,597,0,79.6,13.77,0.00,0.00
15min,AgWx,beryljct,423,11MAY2018:16:45:00,77.3,13.54,73.2,70.8,73.5,74.6,70.8,20,22,18,0.557,29.6,33.2,27.4,11.77,16.6,202,18,25.3,0.00584,0.00849,67.0,63.3,15,593,0,81.2,13.76,0.00,0.00
15min,AgWx,beryljct,423,11MAY2018:17:00:00,76.3,13.62,72.1,71.8,72.1,73.2,70.6,20,23,18,0.564,28.9,31.9,26.7,15.32,14.1,200,12,23.4,0.00443,0.00669,67.0,63.4,15,368,0,77.2,13.77,0.00,0.00
15min,AgWx,beryljct,423,11MAY2018:17:15:00,74.3,13.55,65.7,61.1,66.4,71.8,61.1,31,40,19,0.732,33.4,37.6,27.4,17.14,15.0,313,69,25.1,0.00317,0.00506,67.1,63.6,15,156,0,69.6,13.77,0.00,0.00
15min,AgWx,beryljct,423,11MAY2018:17:30:00,69.5,13.4,58.6,57.2,59.0,61.1,57.2,46,51,40,0.795,38.1,39.1,36.7,27.31,23.7,22,13,32.6,0.00243,0.00405,67.2,63.7,15,75,0,59.4,13.78,0.01,0.00
15min,AgWx,beryljct,423,11MAY2018:17:45:00,65.7,13.34,56.9,56.2,56.9,57.2,56.2,51,54,49,0.813,38.9,39.9,38.4,18.11,21.2,17,12,28.1,0.00206,0.00338,67.3,63.8,15,81,0,58.0,13.78,0.00,0.00
15min,AgWx,beryljct,423,11MAY2018:18:00:00,63.2,13.31,56.3,55.9,56.3,56.5,55.9,52,54,51,0.827,39.1,39.8,38.7,13.77,17.1,10,9.9,24.9,0.00174,0.00285,67.3,63.8,15,66,0,57.4,13.78,0.00,0.00
15min,AgWx,beryljct,423,11MAY2018:18:15:00,61.6,13.31,55.7,55.6,55.6,55.9,55.5,54,56,53,0.808,39.4,40.0,39.0,18.26,17.0,9.2,9.3,21.4,0.00163,0.00267,67.2,63.9,15,66,0,56.8,13.78,0.00,0.00
15min,AgWx,beryljct,423,11MAY2018:18:30:00,60.4,13.27,55.1,54.6,55.1,55.6,54.6,56,58,54,0.843,39.6,40.2,39.0,16.22,16.2,15,11,20.1,0.00148,0.00245,67.1,64.0,15,58,0,56.3,13.78,0.00,0.00
15min,AgWx,beryljct,423,11MAY2018:18:45:00,59.5,13.24,54.3,53.7,54.2,54.7,53.6,59,62,57,0.863,40.2,40.8,39.5,17.89,16.7,22,10,22.1,0.00130,0.00220,66.9,64.1,15,54,0,55.3,13.78,0.00,0.00
15min,AgWx,beryljct,423,11MAY2018:19:00:00,58.6,13.24,53.4,53.0,53.4,53.7,53.0,62,63,60,0.843,40.5,41.0,40.0,16.49,16.7,17,15,23.0,0.00104,0.00186,66.7,64.2,15,63,0,54.6,13.79,0.00,0.00
15min,AgWx,beryljct,423,11MAY2018:19:15:00,57.7,13.21,52.5,52.0,52.5,52.9,51.9,62,63,60,0.820,39.7,40.4,39.1,18.55,18.3,18,12,24.6,0.00095,0.00179,66.5,64.2,15,53,0,53.4,13.79,0.00,0.00
15min,AgWx,beryljct,423,11MAY2018:19:30:00,56.6,13.19,50.6,49.7,50.8,51.9,49.7,66,70,62,0.829,40.0,40.5,39.3,21.68,16.6,45,12,21.9,0.00071,0.00137,66.3,64.3,15,48,0,52.0,13.79,0.00,0.00
15min,AgWx,beryljct,423,11MAY2018:19:45:00,55.5,13.16,49.3,48.9,49.3,49.7,48.9,69,70,68,0.813,39.5,39.8,39.1,18.96,17.5,45,7.5,23.1,0.00040,0.00045,66.1,64.3,15,31,0,50.4,13.80,0.00,0.00
15min,AgWx,beryljct,423,11MAY2018:20:00:00,54.4,13.14,48.5,47.9,48.4,48.8,47.9,70,71,69,0.800,39.0,39.4,38.8,15.65,17.1,44,8.8,23.1,0.00036,0.00041,65.9,64.3,15,15,0,49.3,13.80,0.00,0.00
15min,AgWx,beryljct,423,11MAY2018:20:15:00,53.4,13.11,47.8,47.4,47.6,48.0,47.4,70,71,69,0.774,38.3,39.0,37.7,15.5,17.1,38,8.9,24.8,0.00034,0.00039,65.7,64.3,15,3,0,48.4,13.80,0.00,0.00
15min,AgWx,beryljct,423,11MAY2018:20:30:00,52.6,13.11,47.1,46.5,47.0,47.4,46.5,70,71,69,0.756,37.7,38.1,37.4,19.91,16.6,48,9.0,23.2,0.00033,0.00037,65.5,64.3,15,2,0,47.7,13.80,0.00,0.00
15min,AgWx,beryljct,423,11MAY2018:20:45:00,51.4,13.09,46.2,45.5,46.0,46.5,45.4,73,75,70,0.758,37.8,38.4,37.3,18.61,15.2,43,9.2,23.7,0.00029,0.00033,65.3,64.3,15,0,18,45.1,13.81,0.00,0.00
15min,AgWx,beryljct,423,11MAY2018:21:00:00,50.2,13.09,45.1,44.5,45.0,45.5,44.5,76,79,73,0.782,37.8,38.4,37.3,18.79,14.3,43,8.5,21.7,0.00024,0.00027,65.0,64.3,15,0,39,43.6,13.81,0.00,0.00
15min,AgWx,beryljct,423,11MAY2018:21:15:00,49.2,13.09,44.3,43.8,44.1,44.5,43.8,80,82,77,0.788,38.4,38.8,37.8,16.2,13.9,49,10,18.8,0.00019,0.00022,64.7,64.3,15,0,11,43.4,13.81,0.00,0.00
15min,AgWx,beryljct,423,11MAY2018:21:30:00,48.5,13.08,43.9,43.6,43.7,43.8,43.6,81,82,80,0.770,38.2,38.7,37.8,14.56,13.8,52,9.4,18.9,0.00018,0.00021,64.5,64.2,15,0,0,43.9,13.81,0.00,0.00
15min,AgWx,beryljct,423,11MAY2018:21:45:00,48.0,13.06,43.5,42.9,43.2,43.6,42.9,81,83,79,0.770,37.8,38.1,37.5,13.99,14.3,49,8.9,20.6,0.00018,0.00021,64.3,64.2,15,0,0,43.5,13.81,0.00,0.00
15min,AgWx,beryljct,423,11MAY2018:22:00:00,47.5,13.06,43.1,42.7,42.8,43.0,42.7,82,82,81,0.763,37.7,38.0,37.4,9.62,15.4,48,10,21.1,0.00017,0.00020,64.0,64.2,15,0,0,43.7,13.81,0.00,0.00
15min,AgWx,beryljct,423,11MAY2018:22:15:00,47.3,13.05,43.0,42.7,42.7,42.8,42.6,81,82,80,0.756,37.3,37.6,37.0,8.83,11.8,44,11,16.6,0.00017,0.00019,63.8,64.1,15,0,0,43.7,13.81,0.00,0.00
15min,AgWx,beryljct,423,11MAY2018:22:30:00,46.9,13.05,42.9,42.6,42.6,42.8,42.4,81,82,80,0.755,37.1,37.5,36.9,12.5,13.8,46,7.6,19.1,0.00018,0.00020,63.5,64.0,15,0,0,43.2,13.81,0.00,0.00
15min,AgWx,beryljct,423,11MAY2018:22:45:00,46.7,13.03,42.7,42.3,42.4,42.6,42.2,82,83,81,0.754,37.4,37.7,36.9,11.79,12.6,50,10,16.7,0.00016,0.00018,63.3,64.0,15,0,0,43.3,13.81,0.00,0.00
15min,AgWx,beryljct,423,11MAY2018:23:00:00,46.5,13.04,42.4,42.0,42.1,42.2,42.0,82,82,81,0.735,36.9,37.2,36.6,13.48,13.3,56,8.4,18.0,0.00016,0.00019,63.0,63.9,15,0,0,43.2,13.81,0.00,0.00
15min,AgWx,beryljct,423,11MAY2018:23:15:00,46.3,13.03,42.3,42.0,42.0,42.1,42.0,80,81,80,0.730,36.4,36.8,36.2,12.25,13.4,55,8.6,18.8,0.00018,0.00020,62.8,63.8,15,0,0,43.1,13.81,0.00,0.00
15min,AgWx,beryljct,423,11MAY2018:23:30:00,46.1,13.02,42.2,41.9,41.9,42.0,41.8,81,82,80,0.723,36.5,36.8,36.2,12.3,10.6,52,8.6,15.2,0.00016,0.00019,62.5,63.7,15,0,0,43.0,13.81,0.00,0.00
15min,AgWx,beryljct,423,11MAY2018:23:45:00,45.9,13,42.4,42.1,42.0,42.2,41.9,79,80,78,0.712,36.0,36.4,35.6,9.45,10.8,47,8.6,15.2,0.00017,0.00020,62.3,63.6,15,0,0,43.2,13.81,0.00,0.00
15min,AgWx,beryljct,423,12MAY2018:00:00:00,45.8,13.01,42.4,42.0,42.1,42.2,42.0,77,78,76,0.698,35.4,35.9,35.1,10.57,10.6,42,11,15.6,0.00019,0.00022,62.1,63.6,15,0,0,43.3,13.81,0.00,0.00
15min,AgWx,beryljct,423,12MAY2018:00:15:00,45.8,13,42.4,42.1,42.1,42.2,42.0,77,77,76,0.700,35.3,35.6,35.0,9.1,8.7,41,8.3,12.7,0.00018,0.00022,61.9,63.5,15,0,0,43.3,13.81,0.00,0.00
15min,AgWx,beryljct,423,12MAY2018:00:30:00,45.7,13,42.5,42.2,42.2,42.3,42.1,77,78,76,0.706,35.5,35.7,35.2,9.45,7.8,49,9.2,10.5,0.00017,0.00021,61.6,63.4,15,0,0,43.3,13.81,0.00,0.00
15min,AgWx,beryljct,423,12MAY2018:00:45:00,45.6,12.98,42.5,42.1,42.1,42.2,42.0,77,78,76,0.702,35.5,35.7,35.1,7.103,9.0,47,8.8,11.7,0.00018,0.00022,61.4,63.3,15,0,0,43.3,13.81,0.00,0.00
15min,AgWx,bigpiney,439,11MAY2018:01:00:00,45.0,12.78,38.9,38.5,39.3,40.3,38.5,91,92,90,0.726,36.8,37.6,36.3,3.595,2.1,145,12,3.7,-0.00002,-0.00002,50.8,48.3,54,0,100,0.0,.,0.00,0.00
15min,AgWx,bigpiney,439,11MAY2018:01:15:00,44.6,12.77,39.6,39.0,38.4,39.0,37.8,92,94,92,0.747,36.4,37.2,35.7,0.548,1.6,177,29,3.4,-0.00003,-0.00004,50.6,48.2,54,0,100,0.0,.,0.00,0.00
15min,AgWx,bigpiney,439,11MAY2018:01:30:00,44.2,12.76,39.9,39.6,39.5,39.7,39.0,92,93,91,0.754,37.2,37.4,37.1,0,0.6,113,76,1.3,-0.00005,-0.00007,50.4,48.3,54,0,100,0.0,.,0.00,0.00
15min,AgWx,bigpiney,439,11MAY2018:01:45:00,44.0,12.76,39.0,38.7,39.0,39.6,38.6,93,93,91,0.743,37.0,37.4,36.6,0.899,0.7,257,12,1.9,-0.00005,-0.00007,50.2,48.2,54,0,100,0.0,.,0.00,0.00
15min,AgWx,bigpiney,439,11MAY2018:02:00:00,43.8,12.74,39.0,38.7,38.5,38.7,38.4,93,93,93,0.739,36.7,36.9,36.5,2.565,2.7,284,8.2,3.5,-0.00002,-0.00002,50.0,48.1,54,0,100,0.0,.,0.00,0.00
15min,AgWx,bigpiney,439,11MAY2018:02:15:00,43.6,12.74,38.8,38.5,38.5,38.7,38.3,93,93,93,0.737,36.7,36.8,36.4,2.981,2.2,256,13,3.0,-0.00002,-0.00003,49.8,48.1,54,0,100,0.0,.,0.00,0.00
15min,AgWx,bigpiney,439,11MAY2018:02:30:00,43.4,12.73,38.2,37.7,38.1,38.7,37.5,93,93,92,0.714,36.2,36.9,35.4,4.472,3.9,242,12,5.7,-0.00000,-0.00000,49.7,48.1,54,0,100,0.0,.,0.00,0.00
15min,AgWx,bigpiney,439,11MAY2018:02:45:00,43.0,12.71,37.8,37.5,37.7,37.9,37.5,93,93,92,0.704,35.7,36.1,35.4,0.723,2.6,257,8.8,4.5,-0.00002,-0.00002,49.5,48.0,54,0,100,0.0,.,0.00,0.00
15min,AgWx,bigpiney,439,11MAY2018:03:00:00,42.7,12.71,37.4,37.3,37.4,37.5,37.3,93,93,92,0.699,35.5,35.7,35.3,3.223,2.1,233,11,3.3,-0.00002,-0.00003,49.4,48.0,54,0,100,0.0,.,0.00,0.00
15min,AgWx,bigpiney,439,11MAY2018:03:15:00,42.4,12.69,37.7,37.5,37.4,37.6,37.0,93,94,92,0.700,35.6,35.8,35.2,3.244,3.3,238,4.7,4.3,-0.00001,-0.00001,49.2,48.0,54,0,100,0.0,.,0.00,0.00
15min,AgWx,bigpiney,439,11MAY2018:03:30:00,42.2,12.68,37.7,37.2,37.0,37.5,36.7,93,93,92,0.699,35.1,35.5,34.7,3.529,3.1,224,7.5,3.9,-0.00001,-0.00001,49.0,47.9,54,0,100,0.0,.,0.00,0.00
15min,AgWx,bigpiney,439,11MAY2018:03:45:00,42.2,12.67,38.5,38.2,37.6,38.2,37.2,93,93,92,0.723,35.8,36.2,35.4,3.771,3.9,226,11,4.8,-0.00000,-0.00000,48.8,47.8,54,0,100,0.0,.,0.00,0.00
15min,AgWx,bigpiney,439,11MAY2018:04:00:00,42.2,12.65,38.1,37.6,38.0,38.2,37.6,92,93,92,0.708,35.9,36.2,35.6,6.686,5.2,218,7.8,8.1,0.00001,0.00001,48.7,47.8,54,0,100,0.0,.,0.00,0.00
15min,AgWx,bigpiney,439,11MAY2018:04:15:00,42.3,12.65,38.4,37.9,37.7,37.9,37.5,92,93,92,0.712,35.6,35.8,35.4,5.196,6.1,221,7.9,9.0,0.00001,0.00002,48.5,47.8,54,0,100,0.0,.,0.00,0.00
15min,AgWx,bigpiney,439,11MAY2018:04:30:00,42.5,12.64,38.2,37.9,38.0,38.2,37.8,92,93,92,0.715,35.9,36.0,35.8,5.963,5.0,202,10,7.1,0.00001,0.00002,48.4,47.8,54,0,100,0.0,.,0.00,0.01
15min,AgWx,bigpiney,439,11MAY2018:04:45:00,42.5,12.62,39.8,39.2,38.2,39.2,37.8,93,94,93,0.763,36.5,37.6,35.9,5.459,6.1,216,8.3,7.5,0.00001,0.00001,48.2,47.7,54,0,100,0.0,.,0.00,0.03
15min,AgWx,bigpiney,439,11MAY2018:05:00:00,42.7,12.61,39.8,39.5,39.8,40.0,39.2,92,94,89,0.736,37.7,38.1,36.7,11.88,7.8,220,9.4,14.4,0.00003,0.00003,48.1,47.6,54,0,100,0.0,.,0.00,0.05
15min,AgWx,bigpiney,439,11MAY2018:05:15:00,42.7,12.61,38.9,38.7,39.1,39.6,38.7,89,90,88,0.704,36.1,36.7,35.5,5.305,7.0,196,18,12.8,0.00004,0.00006,47.9,47.6,54,0,100,0.0,.,0.00,0.02
15min,AgWx,bigpiney,439,11MAY2018:05:30:00,42.7,12.6,39.1,38.8,38.8,38.9,38.7,90,91,88,0.724,36.1,36.3,35.6,1.754,4.8,221,7.6,6.4,0.00002,0.00003,47.8,47.6,54,0,100,0.0,.,0.00,0.00
15min,AgWx,bigpiney,439,11MAY2018:05:45:00,42.7,12.59,39.1,38.8,38.8,38.9,38.8,91,91,90,0.719,36.3,36.5,36.1,3.31,3.2,241,10,4.7,-0.00000,0.00000,47.7,47.6,54,0,100,0.0,.,0.00,0.01
15min,AgWx,bigpiney,439,11MAY2018:06:00:00,42.6,12.57,39.4,38.9,38.9,39.1,38.8,90,90,90,0.725,36.2,36.4,36.0,1.184,2.4,234,11,3.5,-0.00001,-0.00001,47.5,47.5,54,0,100,0.0,.,0.00,0.00
15min,AgWx,bigpiney,439,11MAY2018:06:15:00,42.7,12.56,39.3,39.0,38.9,39.0,38.8,90,91,89,0.722,36.2,36.4,36.0,0.767,1.3,282,15,2.3,-0.00003,-0.00004,47.4,47.5,54,1,100,0.0,.,0.00,0.00
15min,AgWx,bigpiney,439,11MAY2018:06:30:00,42.8,12.57,39.4,39.2,39.1,39.2,38.9,90,91,89,0.735,36.3,36.7,36.0,1.732,2.0,279,8.2,3.1,0.00007,0.00010,47.3,47.4,54,6,100,0.0,.,0.00,0.00
15min,AgWx,bigpiney,439,11MAY2018:06:45:00,42.9,12.58,39.8,39.4,39.3,39.4,39.1,89,91,88,0.720,36.3,36.6,36.0,0,0.8,274,9.8,2.0,0.00008,0.00010,47.1,47.4,54,14,100,0.0,.,0.00,0.00
15min,AgWx,bigpiney,439,11MAY2018:07:00:00,43.0,12.57,40.1,39.8,39.6,39.9,39.4,88,89,87,0.735,36.4,36.7,36.1,0.438,0.6,239,48,2.2,0.00010,0.00012,47.0,47.3,54,16,100,0.0,.,0.00,0.00
15min,AgWx,bigpiney,439,11MAY2018:07:15:00,43.2,12.58,39.9,39.5,39.5,39.9,39.4,89,91,88,0.736,36.7,37.1,36.4,0,1.2,355,24,2.9,0.00013,0.00016,46.9,47.3,54,20,100,0.0,.,0.00,0.00
15min,AgWx,bigpiney,439,11MAY2018:07:30:00,43.3,12.6,39.9,39.6,39.6,39.8,39.5,89,90,89,0.739,36.7,37.0,36.5,1.929,1.8,21,7.7,3.4,0.00020,0.00024,46.8,47.3,54,32,100,0.0,.,0.00,0.00
15min,AgWx,bigpiney,439,11MAY2018:07:45:00,43.5,12.69,40.3,39.8,39.7,39.9,39.6,89,90,88,0.728,36.7,37.1,36.4,1.82,1.5,36,7.6,2.5,0.00033,0.00038,46.7,47.2,54,61,100,0.0,.,0.00,0.00
15min,AgWx,bigpiney,439,11MAY2018:08:00:00,43.7,12.67,40.3,40.2,40.0,40.2,39.8,87,88,86,0.740,36.5,36.9,36.1,2.455,1.8,351,41,2.7,0.00045,0.00051,46.6,47.2,54,88,100,0.0,.,0.00,0.00
15min,AgWx,bigpiney,439,11MAY2018:08:15:00,43.9,12.74,41.0,40.5,40.2,40.5,40.0,86,88,83,0.723,36.3,36.7,35.5,2.981,2.9,302,10,3.9,0.00049,0.00058,46.5,47.2,54,90,100,0.0,.,0.00,0.00
15min,AgWx,bigpiney,439,11MAY2018:08:30:00,44.3,12.79,40.9,40.7,40.6,40.8,40.4,86,88,84,0.755,36.6,37.3,36.0,2.74,3.6,301,11,5.2,0.00060,0.00071,46.5,47.1,54,115,100,0.0,.,0.00,0.00